SCP
0 0 0 0 0 0 0 0 0 0 0 -0 0 0 0 0 0 0 0 0 0 0 0 0 0 0 0 0 0 0 0 0 0 0 0 0 0 0 0 0 0 0 0 0
0 0 0 0 0 0 0 0 0 0 0 -0 0 0 0 0 0 0 0 0 0 0 0 0 0 0 0 0 0 0 0 0 0 0 0 0 0 0 0 0 0 0 0 0
0 0 0 0 0 0 0 0 0 0 0 0 0 0 0 0 0 0 0 0 0 0 0 0 0 0 0 0 0 0 0 0 0 0 0 0 0 0 0 0 0 0 0 0
0 0 0 0 0 0 0 0 0 0 0 0 0 0 0 0 0 0 0 0 0 0 0 0 0 0 0 0 0 0 0 0 0 0 0 0 0 0 0 0 0 0 0 0
0 0 0 0 0 0 0 0 0 0 0 0 0 0 0 0 0 0 0 0 0 0 0 0 0 0 0 0 0 0 0 0 0 0 0 0 0 0 0 0 0 0 0 0
0 0 0 0 0 0 0 0 0 0 0 0 0 0 0 0 0 0 0 0 0 0 0 0 0 0 0 0 0 0 0 0 0 0 0 0 0 0 0 0 0 0 0 0
0 0 0 0 0 0 0 0 0 0 0 0 0 0 0 0 0 0 0 0 0 0 0 0 0 0 0 0 0 0 0 0 0 0 0 0 0 0 0 0 0 0 0 0
0 0 0 0 0 0 0 0 0 0 0 0 0 0 0 0 0 0 0 0 0 0 0 0 0 0 0 0 0 0 0 0 0 0 0 0 0 0 0 0 0 0 0 0
0 0 0 0 0 0 0 0 0 0 0 0 0 0 0 0 0 0 0 0 0 0 0 0 0 0 0 0 0 0 0 0 0 0 0 0 0 0 0 0 0 0 0 0
0 0 0 0 0 0 0 0 0 0 0 0 0 0 0 0 0 0 0 0 0 0 0 0 0 0 0 0 0 0 0 0 0 0 0 0 0 0 0 0 0 0 0 0
0 0 0 0 0 0 0 0 0 0 0 0 0 0 0 0 0 0 0 0 0 0 0 0 0 0 0 0 0 0 0 0 0 0 0 0 0 0 0 0 0 0 0 0
0 0 0 0 0 0 0 0 0 0 0 0 0 0 0 0 0 0 0 0 0 0 0 0 0 0 0 0 0 0 0 0 0 0 0 0 0 0 0 0 0 0 0 0
0 0 0 0 0 0 0 0 0 0 0 0 0 0 0 0 0 0 0 0 0 0 0 0 0 0 0 0 0 0 0 0 0 0 0 0 0 0 0 0 0 0 0 0
0 0 0 0 0 0 0 0 0 0 0 0 0 0 0 0 0 0 0 0 0 0 0 0 0 0 0 0 0 0 0 0 0 0 0 0 0 0 0 0 0 0 0 0
0 0 0 0 0 0 0 0 0 0 0 0 0 0 0 0 0 0 0 0 0 0 0 0 0 0 0 0 0 0 0 0 0 0 0 0 0 0 0 0 0 0 0 0
0 0 0 0 0 0 0 0 0 0 0 0 0 0 0 0 0 0 0 0 0 0 0 0 0 0 0 0 0 0 0 0 0 0 0 0 0 0 0 0 0 0 0 0
0 0 0 0 0 0 0 0 0 0 0 0 0 0 0 0 0 0 0 0 0 0 0 0 0 0 0 0 0 0 0 0 0 0 0 0 0 0 0 0 0 0 0 0
0 0 0 0 0 0 0 0 0 0 0 0 0 0 0 0 0 0 0 0 0 0 0 0 0 0 0 0 0 0 0 0 0 0 0 0 0 0 0 0 0 0 0 0
0 0 0 0 0 0 0 0 0 0 0 0 0 0 0 0 0 0 0 0 0 0 0 0 0 0 0 0 0 0 0 0 0 0 0 0 0 0 0 0 0 0 0 0
0 0 0 0 0 0 0 0 0 0 0 0 0 0 0 0 0 0 0 0 0 0 0 0 0 0 0 0 0 0 0 0 0 0 0 0 0 0 0 0 0 0 0 0
0 0 0 0 0 0 0 0 0 0 0 0 0 0 0 0 0 0 0 0 0 0 0 0 0 0 0 0 0 0 0 0 0 0 0 0 0 0 0 0 0 0 0 0
0 0 0 0 0 0 0 0 0 0 0 0 0 0 0 0 0 0 0 0 0 0 0 0 0 0 0 0 0 0 0 0 0 0 0 0 0 0 0 0 0 0 0 0
0 0 0 0 0 0 0 0 0 0 0 0 0 0 0 0 0 0 0 0 0 0 0 0 0 0 0 0 0 0 0 0 0 0 0 0 0 0 0 0 0 0 0 0
0 0 0 0 0 0 0 0 0 0 0 0 0 0 0 0 0 0 0 0 0 0 0 0 0 0 0 0 0 0 0 0 0 0 0 0 0 0 0 0 0 0 0 0
0 0 0 0 0 0 0 0 0 0 0 0 0 0 0 0 0 0 0 0 0 0 0 0 0 0 0 0 0 0 0 0 0 0 0 0 0 0 0 0 0 0 0 0
0 0 0 0 0 0 0 0 0 0 0 0 0 0 0 0 0 0 0 0 0 0 0 0 0 0 0 0 0 0 0 0 0 0 0 0 0 0 0 0 0 0 0 0
0 0 0 0 0 0 0 0 0 0 0 0 0 0 0 0 0 0 0 0 0 0 0 0 0 0 0 0 0 0 0 0 0 0 0 0 0 0 0 0 0 0 0 0
Wind_Speed_500mb
6 2 7 9 14 40 42 48 21 24 30 55 18 25 42 49 39 42 54 66 75 87 95 89 80 70 59 49 37 26 16 12 5 5 16 23 27 33 38 40 41 40 36 29
8 2 6 13 16 28 42 34 36 34 31 40 25 25 33 51 49 56 62 71 76 86 96 95 87 76 66 55 42 30 21 16 9 2 13 19 24 32 35 35 36 36 34 29
11 6 5 27 36 33 17 14 25 32 42 44 14 17 48 53 53 64 69 73 79 89 99 101 94 81 72 59 46 34 26 22 13 3 9 13 19 27 28 31 34 36 36 33
5 4 20 8 3 42 48 35 41 19 26 20 33 25 39 44 41 58 72 76 80 85 93 99 93 81 71 62 49 38 32 27 18 9 7 8 16 20 24 28 31 35 37 37
8 13 26 43 9 18 20 37 41 47 57 62 26 27 76 64 61 63 72 67 72 79 86 95 95 85 78 66 54 44 37 31 23 14 8 5 11 16 20 25 29 32 34 35
7 9 30 20 30 44 16 37 27 56 52 42 18 3 30 34 22 27 37 47 63 70 79 86 91 90 82 71 60 49 42 35 28 19 12 6 8 12 16 21 26 30 33 35
26 23 29 13 22 44 17 11 41 56 69 31 17 35 24 15 16 10 21 37 52 61 68 77 88 94 85 72 60 48 46 41 33 25 18 11 7 9 14 19 23 24 29 33
5 9 47 26 26 44 34 8 33 34 60 57 72 58 52 44 29 20 20 34 50 59 66 73 91 95 86 73 60 55 51 46 38 30 23 16 10 8 11 15 18 22 26 30
32 26 2 46 47 77 69 49 44 35 34 37 42 47 43 35 31 27 24 34 49 57 63 77 93 94 86 75 67 61 57 51 45 37 29 22 15 9 7 9 13 18 25 30
11 48 38 50 54 46 68 69 59 49 40 39 41 43 36 36 36 36 34 42 54 62 72 85 97 92 81 76 68 63 61 56 50 41 34 26 19 12 7 5 8 14 22 29
36 55 7 35 72 65 61 50 66 68 64 66 56 49 46 46 41 42 40 47 57 67 75 86 97 95 86 76 69 68 64 58 53 46 37 30 23 15 8 3 5 13 21 27
34 29 25 55 55 46 68 81 83 76 62 60 56 54 50 49 44 43 46 52 63 73 79 89 98 96 90 78 71 70 69 63 57 49 42 34 25 17 10 4 6 11 17 22
28 57 39 43 46 58 63 68 65 80 86 74 67 63 58 53 47 46 51 56 67 78 82 92 98 98 89 81 74 70 66 62 57 51 43 36 28 19 12 7 4 5 8 15
79 67 53 48 38 50 54 50 56 55 62 73 73 62 58 54 49 49 54 58 68 76 82 93 97 95 87 80 74 70 65 58 54 50 44 37 31 23 16 9 6 1 4 8
74 77 87 83 75 63 53 49 55 54 57 59 60 60 60 59 55 53 55 62 68 74 83 91 95 94 86 79 75 74 69 63 55 49 44 37 32 25 18 13 11 6 3 3
67 59 79 80 86 78 68 64 64 59 52 45 47 57 64 61 58 58 59 65 74 84 88 94 96 90 85 79 77 74 69 63 59 54 48 42 36 28 22 20 18 12 6 3
68 71 78 78 81 79 80 82 74 63 67 60 50 59 65 62 63 60 61 64 68 75 83 89 93 88 83 78 77 76 73 69 63 56 49 43 37 30 27 23 20 16 13 9
101 112 105 99 90 95 100 86 79 76 72 60 47 60 61 67 70 64 62 67 74 75 82 87 86 85 81 77 77 75 72 70 66 60 52 49 41 35 30 26 23 21 20 17
103 102 104 106 103 99 98 90 82 75 67 59 50 54 62 65 68 67 68 78 81 85 90 87 83 81 78 76 77 75 71 70 66 60 54 48 45 40 33 29 26 25 23 23
81 88 93 99 93 84 80 79 72 64 63 58 52 48 60 68 70 66 66 76 82 88 86 86 85 82 76 75 74 71 70 67 64 60 57 54 47 40 34 33 31 28 26 25
58 60 62 69 68 68 66 65 62 61 63 60 53 50 57 63 63 60 67 79 84 81 81 83 81 79 75 75 73 71 67 67 65 61 57 52 45 42 38 36 33 31 29 28
49 51 43 45 50 56 54 53 53 56 60 58 51 53 59 65 64 62 67 82 80 80 81 80 77 71 72 72 70 67 68 66 61 57 54 50 46 43 40 38 36 35 34 33
38 37 38 37 38 43 43 45 50 53 55 51 54 56 57 63 67 72 75 75 76 80 79 75 70 67 68 67 66 64 63 61 56 53 50 49 47 44 42 41 39 39 38 36
26 29 35 35 34 34 40 43 45 46 45 44 44 44 49 61 63 66 67 71 75 73 69 66 64 63 62 60 59 59 56 52 50 49 49 48 48 47 46 43 41 41 40 39
23 25 29 34 36 34 36 41 45 46 46 45 44 44 46 52 57 65 61 62 66 63 61 60 60 60 57 54 52 50 48 47 48 50 50 50 49 47 44 44 43 44 41 40
21 26 30 34 38 41 39 43 47 47 47 50 47 43 45 48 49 57 59 60 67 64 60 62 60 55 51 49 48 47 48 50 51 50 49 49 49 47 45 45 45 44 42 41
22 25 28 34 38 42 43 48 52 54 49 48 53 52 50 51 54 57 60 63 62 60 54 51 51 50 49 48 48 48 48 47 46 46 45 44 45 44 45 45 44 44 46 44
Wind_Direction_500mb
257 86 169 206 185 190 198 219 200 222 220 252 237 228 236 241 239 226 219 217 218 211 207 206 206 207 206 210 212 209 212 214 214 346 11 3 7 16 18 17 18 18 15 15
303 337 198 251 215 198 216 232 257 268 268 255 247 246 240 235 234 231 228 229 223 216 211 209 208 207 206 206 206 204 202 201 196 312 27 11 14 22 20 18 22 21 20 19
250 48 16 271 203 196 196 202 214 222 235 257 257 231 240 238 227 237 238 235 227 222 217 212 210 207 206 202 200 200 197 194 186 176 50 23 25 29 19 20 24 25 24 22
170 76 245 222 197 199 204 209 217 273 257 232 239 256 271 265 245 251 246 239 232 225 218 214 209 205 203 201 198 198 192 189 185 174 97 41 41 32 25 24 24 26 26 23
189 202 283 265 186 160 172 239 217 226 247 254 261 300 287 276 277 271 260 252 239 231 221 214 206 202 199 197 195 195 190 189 184 174 143 86 57 44 31 27 25 23 24 22
124 207 240 295 187 185 95 260 218 216 238 247 143 244 262 295 292 269 257 243 234 224 219 213 202 199 197 196 195 191 189 187 184 178 164 129 82 59 40 34 29 26 21 19
216 230 263 192 129 135 188 260 217 205 228 177 193 224 239 260 289 270 249 235 225 221 218 209 200 197 196 196 192 189 185 187 186 179 175 159 122 74 47 35 30 24 24 18
147 214 258 163 161 199 223 231 199 219 230 222 241 242 243 255 259 250 240 218 216 209 205 202 197 196 194 193 188 189 187 188 186 182 180 172 155 105 64 43 26 21 22 22
192 220 356 181 209 216 232 234 229 226 234 245 243 242 239 240 244 241 230 218 208 204 199 195 195 196 194 189 189 188 188 188 187 184 184 178 167 140 90 51 31 25 22 19
150 243 238 220 221 236 229 234 246 252 251 244 242 241 234 232 232 227 224 215 207 197 196 192 192 193 196 192 188 190 189 189 188 186 187 182 175 165 135 79 34 31 32 25
236 249 326 242 235 238 240 248 245 244 243 246 238 229 236 232 230 226 221 213 206 201 196 194 190 191 190 193 191 189 190 189 188 187 189 188 184 175 163 122 47 35 31 27
225 225 223 247 246 252 242 242 246 243 241 236 232 237 242 242 239 232 225 214 204 201 198 193 192 189 190 191 193 193 190 190 190 190 190 190 190 182 179 171 58 36 29 24
235 247 259 260 261 255 253 254 255 255 253 247 243 239 240 238 233 233 226 215 210 204 197 193 191 190 190 192 192 194 196 192 190 191 193 194 190 189 196 193 131 59 23 25
239 243 254 255 256 262 262 263 254 258 260 254 251 247 241 234 230 233 228 218 210 204 197 194 192 191 192 193 193 193 195 196 194 194 193 192 192 193 196 208 222 52 29 16
243 247 251 254 255 255 254 250 246 251 258 255 252 247 240 233 231 230 221 214 207 202 198 193 192 193 193 193 195 193 192 192 193 195 196 194 198 196 198 214 238 248 271 324
253 263 254 251 256 256 253 248 246 249 250 258 263 261 246 236 231 222 218 212 203 199 195 193 194 194 193 194 194 193 194 193 194 195 196 197 201 201 202 212 229 232 244 287
239 248 250 254 254 254 255 250 246 253 254 249 256 262 242 229 221 215 213 209 204 203 196 193 193 191 194 197 195 195 194 193 196 197 200 201 203 205 208 214 228 243 247 245
243 244 247 247 248 253 251 249 246 249 249 246 252 250 232 226 222 214 210 201 199 197 195 192 192 193 195 197 197 197 196 196 197 198 199 203 205 210 214 217 225 237 251 255
245 247 249 249 248 248 251 252 250 250 242 237 232 242 233 225 221 216 208 201 196 191 191 191 190 195 197 198 199 198 197 198 200 200 202 205 208 215 220 225 230 236 244 254
242 241 239 241 241 242 245 249 251 241 232 228 221 225 224 219 217 214 208 203 197 193 189 186 191 195 197 199 199 200 199 201 202 203 204 208 213 219 224 232 237 243 245 249
253 247 248 247 241 239 239 241 242 236 225 217 216 220 222 218 212 208 203 200 197 194 187 190 191 194 195 198 199 200 200 203 204 206 209 213 216 221 227 236 243 245 247 248
257 257 254 255 245 237 233 231 226 218 212 205 208 219 216 208 202 198 205 205 193 189 188 191 193 195 197 196 198 199 203 205 207 209 213 217 221 226 231 238 244 248 248 249
258 253 243 241 238 226 214 209 206 205 205 204 212 210 208 205 198 194 195 196 195 190 189 189 192 194 196 196 196 199 205 207 209 210 215 220 226 229 233 238 241 243 246 249
251 235 228 226 222 212 199 189 190 190 192 195 197 199 203 198 190 195 195 191 187 190 185 186 186 188 192 193 196 200 204 206 209 213 217 221 227 231 234 238 242 244 243 246
228 221 210 203 198 193 189 180 180 181 182 183 184 184 189 194 197 183 182 183 179 179 178 177 181 185 188 190 195 199 202 206 211 214 218 224 230 234 236 239 239 240 241 244
201 196 188 181 180 174 175 172 172 165 168 167 163 166 171 173 173 176 171 172 171 172 175 177 179 183 184 188 193 198 203 208 212 216 220 226 230 233 237 238 238 240 239 237
164 160 161 161 156 154 160 163 158 151 154 154 152 150 154 156 161 165 164 166 167 168 172 173 176 181 186 192 196 201 207 211 215 220 223 229 234 236 237 238 239 238 239 238
Wind_Speed_850mb
6 2 7 9 14 40 42 48 21 24 30 55 18 25 42 49 39 42 54 66 75 87 95 89 80 70 59 49 37 26 16 12 5 5 16 23 27 33 38 40 41 40 36 29
8 2 6 13 16 28 42 34 36 34 31 40 25 25 33 51 49 56 62 71 76 86 96 95 87 76 66 55 42 30 21 16 9 2 13 19 24 32 35 35 36 36 34 29
11 6 5 27 36 33 17 14 25 32 42 44 14 17 48 53 53 64 69 73 79 89 99 101 94 81 72 59 46 34 26 22 13 3 9 13 19 27 28 31 34 36 36 33
5 4 20 8 3 42 48 35 41 19 26 20 33 25 39 44 41 58 72 76 80 85 93 99 93 81 71 62 49 38 32 27 18 9 7 8 16 20 24 28 31 35 37 37
8 13 26 43 9 18 20 37 41 47 57 62 26 27 76 64 61 63 72 67 72 79 86 95 95 85 78 66 54 44 37 31 23 14 8 5 11 16 20 25 29 32 34 35
7 9 30 20 30 44 16 37 27 56 52 42 18 3 30 34 22 27 37 47 63 70 79 86 91 90 82 71 60 49 42 35 28 19 12 6 8 12 16 21 26 30 33 35
26 23 29 13 22 44 17 11 41 56 69 31 17 35 24 15 16 10 21 37 52 61 68 77 88 94 85 72 60 48 46 41 33 25 18 11 7 9 14 19 23 24 29 33
5 9 47 26 26 44 34 8 33 34 60 57 72 58 52 44 29 20 20 34 50 59 66 73 91 95 86 73 60 55 51 46 38 30 23 16 10 8 11 15 18 22 26 30
32 26 2 46 47 77 69 49 44 35 34 37 42 47 43 35 31 27 24 34 49 57 63 77 93 94 86 75 67 61 57 51 45 37 29 22 15 9 7 9 13 18 25 30
11 48 38 50 54 46 68 69 59 49 40 39 41 43 36 36 36 36 34 42 54 62 72 85 97 92 81 76 68 63 61 56 50 41 34 26 19 12 7 5 8 14 22 29
36 55 7 35 72 65 61 50 66 68 64 66 56 49 46 46 41 42 40 47 57 67 75 86 97 95 86 76 69 68 64 58 53 46 37 30 23 15 8 3 5 13 21 27
34 29 25 55 55 46 68 81 83 76 62 60 56 54 50 49 44 43 46 52 63 73 79 89 98 96 90 78 71 70 69 63 57 49 42 34 25 17 10 4 6 11 17 22
28 57 39 43 46 58 63 68 65 80 86 74 67 63 58 53 47 46 51 56 67 78 82 92 98 98 89 81 74 70 66 62 57 51 43 36 28 19 12 7 4 5 8 15
79 67 53 48 38 50 54 50 56 55 62 73 73 62 58 54 49 49 54 58 68 76 82 93 97 95 87 80 74 70 65 58 54 50 44 37 31 23 16 9 6 1 4 8
74 77 87 83 75 63 53 49 55 54 57 59 60 60 60 59 55 53 55 62 68 74 83 91 95 94 86 79 75 74 69 63 55 49 44 37 32 25 18 13 11 6 3 3
67 59 79 80 86 78 68 64 64 59 52 45 47 57 64 61 58 58 59 65 74 84 88 94 96 90 85 79 77 74 69 63 59 54 48 42 36 28 22 20 18 12 6 3
68 71 78 78 81 79 80 82 74 63 67 60 50 59 65 62 63 60 61 64 68 75 83 89 93 88 83 78 77 76 73 69 63 56 49 43 37 30 27 23 20 16 13 9
101 112 105 99 90 95 100 86 79 76 72 60 47 60 61 67 70 64 62 67 74 75 82 87 86 85 81 77 77 75 72 70 66 60 52 49 41 35 30 26 23 21 20 17
103 102 104 106 103 99 98 90 82 75 67 59 50 54 62 65 68 67 68 78 81 85 90 87 83 81 78 76 77 75 71 70 66 60 54 48 45 40 33 29 26 25 23 23
81 88 93 99 93 84 80 79 72 64 63 58 52 48 60 68 70 66 66 76 82 88 86 86 85 82 76 75 74 71 70 67 64 60 57 54 47 40 34 33 31 28 26 25
58 60 62 69 68 68 66 65 62 61 63 60 53 50 57 63 63 60 67 79 84 81 81 83 81 79 75 75 73 71 67 67 65 61 57 52 45 42 38 36 33 31 29 28
49 51 43 45 50 56 54 53 53 56 60 58 51 53 59 65 64 62 67 82 80 80 81 80 77 71 72 72 70 67 68 66 61 57 54 50 46 43 40 38 36 35 34 33
38 37 38 37 38 43 43 45 50 53 55 51 54 56 57 63 67 72 75 75 76 80 79 75 70 67 68 67 66 64 63 61 56 53 50 49 47 44 42 41 39 39 38 36
26 29 35 35 34 34 40 43 45 46 45 44 44 44 49 61 63 66 67 71 75 73 69 66 64 63 62 60 59 59 56 52 50 49 49 48 48 47 46 43 41 41 40 39
23 25 29 34 36 34 36 41 45 46 46 45 44 44 46 52 57 65 61 62 66 63 61 60 60 60 57 54 52 50 48 47 48 50 50 50 49 47 44 44 43 44 41 40
21 26 30 34 38 41 39 43 47 47 47 50 47 43 45 48 49 57 59 60 67 64 60 62 60 55 51 49 48 47 48 50 51 50 49 49 49 47 45 45 45 44 42 41
22 25 28 34 38 42 43 48 52 54 49 48 53 52 50 51 54 57 60 63 62 60 54 51 51 50 49 48 48 48 48 47 46 46 45 44 45 44 45 45 44 44 46 44
Wind_Direction_850mb
257 86 169 206 185 190 198 219 200 222 220 252 237 228 236 241 239 226 219 217 218 211 207 206 206 207 206 210 212 209 212 214 214 346 11 3 7 16 18 17 18 18 15 15
303 337 198 251 215 198 216 232 257 268 268 255 247 246 240 235 234 231 228 229 223 216 211 209 208 207 206 206 206 204 202 201 196 312 27 11 14 22 20 18 22 21 20 19
250 48 16 271 203 196 196 202 214 222 235 257 257 231 240 238 227 237 238 235 227 222 217 212 210 207 206 202 200 200 197 194 186 176 50 23 25 29 19 20 24 25 24 22
170 76 245 222 197 199 204 209 217 273 257 232 239 256 271 265 245 251 246 239 232 225 218 214 209 205 203 201 198 198 192 189 185 174 97 41 41 32 25 24 24 26 26 23
189 202 283 265 186 160 172 239 217 226 247 254 261 300 287 276 277 271 260 252 239 231 221 214 206 202 199 197 195 195 190 189 184 174 143 86 57 44 31 27 25 23 24 22
124 207 240 295 187 185 95 260 218 216 238 247 143 244 262 295 292 269 257 243 234 224 219 213 202 199 197 196 195 191 189 187 184 178 164 129 82 59 40 34 29 26 21 19
216 230 263 192 129 135 188 260 217 205 228 177 193 224 239 260 289 270 249 235 225 221 218 209 200 197 196 196 192 189 185 187 186 179 175 159 122 74 47 35 30 24 24 18
147 214 258 163 161 199 223 231 199 219 230 222 241 242 243 255 259 250 240 218 216 209 205 202 197 196 194 193 188 189 187 188 186 182 180 172 155 105 64 43 26 21 22 22
192 220 356 181 209 216 232 234 229 226 234 245 243 242 239 240 244 241 230 218 208 204 199 195 195 196 194 189 189 188 188 188 187 184 184 178 167 140 90 51 31 25 22 19
150 243 238 220 221 236 229 234 246 252 251 244 242 241 234 232 232 227 224 215 207 197 196 192 192 193 196 192 188 190 189 189 188 186 187 182 175 165 135 79 34 31 32 25
236 249 326 242 235 238 240 248 245 244 243 246 238 229 236 232 230 226 221 213 206 201 196 194 190 191 190 193 191 189 190 189 188 187 189 188 184 175 163 122 47 35 31 27
225 225 223 247 246 252 242 242 246 243 241 236 232 237 242 242 239 232 225 214 204 201 198 193 192 189 190 191 193 193 190 190 190 190 190 190 190 182 179 171 58 36 29 24
235 247 259 260 261 255 253 254 255 255 253 247 243 239 240 238 233 233 226 215 210 204 197 193 191 190 190 192 192 194 196 192 190 191 193 194 190 189 196 193 131 59 23 25
239 243 254 255 256 262 262 263 254 258 260 254 251 247 241 234 230 233 228 218 210 204 197 194 192 191 192 193 193 193 195 196 194 194 193 192 192 193 196 208 222 52 29 16
243 247 251 254 255 255 254 250 246 251 258 255 252 247 240 233 231 230 221 214 207 202 198 193 192 193 193 193 195 193 192 192 193 195 196 194 198 196 198 214 238 248 271 324
253 263 254 251 256 256 253 248 246 249 250 258 263 261 246 236 231 222 218 212 203 199 195 193 194 194 193 194 194 193 194 193 194 195 196 197 201 201 202 212 229 232 244 287
239 248 250 254 254 254 255 250 246 253 254 249 256 262 242 229 221 215 213 209 204 203 196 193 193 191 194 197 195 195 194 193 196 197 200 201 203 205 208 214 228 243 247 245
243 244 247 247 248 253 251 249 246 249 249 246 252 250 232 226 222 214 210 201 199 197 195 192 192 193 195 197 197 197 196 196 197 198 199 203 205 210 214 217 225 237 251 255
245 247 249 249 248 248 251 252 250 250 242 237 232 242 233 225 221 216 208 201 196 191 191 191 190 195 197 198 199 198 197 198 200 200 202 205 208 215 220 225 230 236 244 254
242 241 239 241 241 242 245 249 251 241 232 228 221 225 224 219 217 214 208 203 197 193 189 186 191 195 197 199 199 200 199 201 202 203 204 208 213 219 224 232 237 243 245 249
253 247 248 247 241 239 239 241 242 236 225 217 216 220 222 218 212 208 203 200 197 194 187 190 191 194 195 198 199 200 200 203 204 206 209 213 216 221 227 236 243 245 247 248
257 257 254 255 245 237 233 231 226 218 212 205 208 219 216 208 202 198 205 205 193 189 188 191 193 195 197 196 198 199 203 205 207 209 213 217 221 226 231 238 244 248 248 249
258 253 243 241 238 226 214 209 206 205 205 204 212 210 208 205 198 194 195 196 195 190 189 189 192 194 196 196 196 199 205 207 209 210 215 220 226 229 233 238 241 243 246 249
251 235 228 226 222 212 199 189 190 190 192 195 197 199 203 198 190 195 195 191 187 190 185 186 186 188 192 193 196 200 204 206 209 213 217 221 227 231 234 238 242 244 243 246
228 221 210 203 198 193 189 180 180 181 182 183 184 184 189 194 197 183 182 183 179 179 178 177 181 185 188 190 195 199 202 206 211 214 218 224 230 234 236 239 239 240 241 244
201 196 188 181 180 174 175 172 172 165 168 167 163 166 171 173 173 176 171 172 171 172 175 177 179 183 184 188 193 198 203 208 212 216 220 226 230 233 237 238 238 240 239 237
164 160 161 161 156 154 160 163 158 151 154 154 152 150 154 156 161 165 164 166 167 168 172 173 176 181 186 192 196 201 207 211 215 220 223 229 234 236 237 238 239 238 239 238